Hourly Weather Jalalabad

Today, 3 July, Friday

Time Temperature Precipitation Wind Pressure Humidity
00:00 +36°C° 0 mm 5 mps 705 mmHg 15%
01:00 +35°C° 0 mm 5 mps 704 mmHg 16%
02:00 +34°C° 0 mm 4 mps 704 mmHg 17%
03:00 +33°C° 0 mm 4 mps 704 mmHg 18%
04:00 +33°C° 0 mm 3 mps 704 mmHg 19%
05:00 +31°C° 0 mm 3 mps 704 mmHg 20%
06:00 +33°C° 0 mm 3 mps 704 mmHg 18%
07:00 +35°C° 0 mm 4 mps 704 mmHg 16%
08:00 +36°C° 0 mm 4 mps 705 mmHg 14%
09:00 +37°C° 0 mm 4 mps 705 mmHg 13%
10:00 +40°C° 0 mm 4 mps 705 mmHg 11%
11:00 +41°C° 0 mm 4 mps 705 mmHg 10%
12:00 +42°C° 0 mm 4 mps 704 mmHg 9%
13:00 +43°C° 0 mm 3 mps 704 mmHg 8%
14:00 +44°C° 0 mm 3 mps 704 mmHg 7%
15:00 +45°C° 0 mm 3 mps 704 mmHg 7%
16:00 +45°C° 0 mm 2 mps 703 mmHg 6%
17:00 +46°C° 0 mm 2 mps 703 mmHg 5%
18:00 +43°C° 0 mm 2 mps 703 mmHg 7%
19:00 +42°C° 0 mm 2 mps 703 mmHg 9%
20:00 +40°C° 0 mm 2 mps 703 mmHg 11%
21:00 +39°C° 0 mm 3 mps 703 mmHg 12%
22:00 +38°C° 0 mm 3 mps 703 mmHg 13%
23:00 +37°C° 0 mm 4 mps 703 mmHg 13%

Tomorrow, 4 July, Saturday

Time Temperature Precipitation Wind Pressure Humidity
00:00 +36°C° 0 mm 3 mps 703 mmHg 14%
01:00 +35°C° 0 mm 3 mps 703 mmHg 15%
02:00 +34°C° 0 mm 3 mps 702 mmHg 16%
03:00 +33°C° 0 mm 3 mps 702 mmHg 17%
04:00 +31°C° 0 mm 2 mps 702 mmHg 18%
05:00 +31°C° 0 mm 2 mps 702 mmHg 19%
06:00 +32°C° 0 mm 2 mps 702 mmHg 17%
07:00 +35°C° 0 mm 2 mps 703 mmHg 14%
08:00 +37°C° 0 mm 3 mps 703 mmHg 12%
09:00 +38°C° 0 mm 3 mps 703 mmHg 11%
10:00 +39°C° 0 mm 3 mps 703 mmHg 9%
11:00 +42°C° 0 mm 3 mps 703 mmHg 8%
12:00 +43°C° 0 mm 3 mps 702 mmHg 8%
13:00 +44°C° 0 mm 3 mps 702 mmHg 8%
14:00 +45°C° 0 mm 4 mps 702 mmHg 8%
15:00 +44°C° 0 mm 4 mps 702 mmHg 11%
16:00 +43°C° 0 mm 4 mps 702 mmHg 15%
17:00 +42°C° 0 mm 5 mps 701 mmHg 19%
18:00 +41°C° 0 mm 4 mps 701 mmHg 21%
19:00 +39°C° 0 mm 3 mps 702 mmHg 22%
20:00 +38°C° 0 mm 2 mps 702 mmHg 24%
21:00 +38°C° 0 mm 2 mps 702 mmHg 24%
22:00 +37°C° 0 mm 2 mps 702 mmHg 24%
23:00 +37°C° 0 mm 2 mps 702 mmHg 24%

Day after tomorrow, 5 July, Sunday

Time Temperature Precipitation Wind Pressure Humidity
00:00 +36°C° 0 mm 2 mps 702 mmHg 23%
01:00 +36°C° 0 mm 3 mps 701 mmHg 21%
02:00 +35°C° 0 mm 3 mps 701 mmHg 20%
03:00 +35°C° 0 mm 2 mps 701 mmHg 21%
04:00 +34°C° 0 mm 2 mps 701 mmHg 22%
05:00 +32°C° 0 mm 1 mps 701 mmHg 23%
06:00 +33°C° 0 mm 1 mps 701 mmHg 20%
07:00 +35°C° 0 mm 1 mps 702 mmHg 16%
08:00 +36°C° 0 mm 1 mps 702 mmHg 13%
09:00 +37°C° 0 mm 2 mps 702 mmHg 15%
10:00 +38°C° 0 mm 3 mps 702 mmHg 16%
11:00 +38°C° 0 mm 4 mps 702 mmHg 18%
12:00 +40°C° 0 mm 4 mps 702 mmHg 17%
13:00 +40°C° 0 mm 3 mps 702 mmHg 16%
14:00 +42°C° 0 mm 3 mps 702 mmHg 15%
15:00 +41°C° 0 mm 2 mps 702 mmHg 15%
16:00 +41°C° 0 mm 2 mps 701 mmHg 15%
17:00 +42°C° 0 mm 2 mps 701 mmHg 15%
18:00 +41°C° 0 mm 2 mps 701 mmHg 16%
19:00 +40°C° 0 mm 1 mps 701 mmHg 18%
20:00 +39°C° 0 mm 1 mps 702 mmHg 20%
21:00 +37°C° 0 mm 1 mps 702 mmHg 21%
22:00 +37°C° 0 mm 1 mps 702 mmHg 22%
23:00 +37°C° 0 mm 2 mps 702 mmHg 22%

6 July, Monday

Time Temperature Precipitation Wind Pressure Humidity
00:00 +37°C° 0 mm 2 mps 702 mmHg 24%
01:00 +36°C° 0 mm 2 mps 702 mmHg 26%
02:00 +35°C° 0 mm 2 mps 702 mmHg 28%
03:00 +34°C° 0 mm 2 mps 702 mmHg 29%
04:00 +34°C° 0 mm 2 mps 702 mmHg 31%
05:00 +32°C° 0 mm 2 mps 701 mmHg 32%
06:00 +34°C° 0 mm 2 mps 702 mmHg 29%
07:00 +34°C° 0 mm 1 mps 702 mmHg 26%
08:00 +36°C° 0 mm 1 mps 702 mmHg 23%
09:00 +37°C° 0 mm 1 mps 702 mmHg 21%
10:00 +39°C° 0 mm 1 mps 702 mmHg 19%
11:00 +40°C° 0 mm 1 mps 702 mmHg 17%
12:00 +41°C° 0.1 mm 2 mps 702 mmHg 17%
13:00 +41°C° 0.1 mm 2 mps 702 mmHg 17%
14:00 +43°C° 0.1 mm 3 mps 701 mmHg 17%
15:00 +43°C° 0.1 mm 3 mps 701 mmHg 18%
16:00 +42°C° 0.1 mm 4 mps 701 mmHg 19%
17:00 +42°C° 0.1 mm 4 mps 701 mmHg 20%
18:00 +41°C° 0 mm 4 mps 702 mmHg 21%
19:00 +41°C° 0 mm 4 mps 702 mmHg 22%
20:00 +40°C° 0 mm 4 mps 702 mmHg 23%
21:00 +38°C° 0 mm 3 mps 703 mmHg 24%
22:00 +37°C° 0 mm 2 mps 703 mmHg 26%
23:00 +36°C° 0 mm 2 mps 703 mmHg 28%

7 July, Tuesday

Time Temperature Precipitation Wind Pressure Humidity
00:00 +35°C° 0 mm 1 mps 703 mmHg 28%
01:00 +35°C° 0 mm 1 mps 703 mmHg 29%
02:00 +34°C° 0 mm 1 mps 703 mmHg 29%
03:00 +34°C° 0 mm 1 mps 703 mmHg 30%
04:00 +33°C° 0 mm 1 mps 702 mmHg 31%
05:00 +33°C° 0 mm 1 mps 702 mmHg 32%
06:00 +34°C° 0 mm 1 mps 702 mmHg 29%
07:00 +35°C° 0 mm 1 mps 703 mmHg 26%
08:00 +36°C° 0 mm 1 mps 703 mmHg 23%
09:00 +37°C° 0 mm 1 mps 703 mmHg 21%
10:00 +40°C° 0 mm 1 mps 703 mmHg 20%
11:00 +41°C° 0 mm 1 mps 703 mmHg 18%
12:00 +42°C° 0 mm 2 mps 703 mmHg 17%
13:00 +44°C° 0 mm 3 mps 703 mmHg 17%
14:00 +45°C° 0 mm 3 mps 703 mmHg 16%
15:00 +45°C° 0.1 mm 5 mps 703 mmHg 19%
16:00 +44°C° 0.1 mm 7 mps 703 mmHg 21%
17:00 +43°C° 0.1 mm 8 mps 703 mmHg 23%
18:00 +41°C° 0 mm 6 mps 703 mmHg 25%
19:00 +40°C° 0 mm 4 mps 703 mmHg 26%
20:00 +38°C° 0 mm 2 mps 703 mmHg 28%
21:00 +37°C° 0 mm 1 mps 704 mmHg 29%
22:00 +36°C° 0 mm 1 mps 704 mmHg 31%
23:00 +35°C° 0 mm 1 mps 704 mmHg 32%

8 July, Wednesday

Time Temperature Precipitation Wind Pressure Humidity
00:00 +35°C° 0.1 mm 1 mps 704 mmHg 34%
01:00 +34°C° 0.1 mm 1 mps 704 mmHg 35%
02:00 +34°C° 0.1 mm 1 mps 703 mmHg 36%
03:00 +33°C° 0 mm 1 mps 703 mmHg 37%
04:00 +33°C° 0 mm 1 mps 703 mmHg 37%
05:00 +31°C° 0 mm 0 mps 703 mmHg 38%
06:00 +34°C° 0 mm 1 mps 704 mmHg 35%
07:00 +35°C° 0 mm 1 mps 704 mmHg 32%
08:00 +36°C° 0 mm 1 mps 704 mmHg 29%
09:00 +37°C° 0 mm 1 mps 704 mmHg 27%
10:00 +40°C° 0 mm 2 mps 704 mmHg 25%
11:00 +41°C° 0 mm 2 mps 704 mmHg 23%
12:00 +42°C° 0 mm 2 mps 704 mmHg 21%
13:00 +43°C° 0 mm 2 mps 703 mmHg 20%
14:00 +45°C° 0 mm 3 mps 703 mmHg 18%
15:00 +45°C° 0 mm 3 mps 703 mmHg 18%
16:00 +45°C° 0 mm 3 mps 703 mmHg 18%
17:00 +45°C° 0 mm 3 mps 703 mmHg 18%
18:00 +45°C° 0 mm 3 mps 703 mmHg 20%
19:00 +44°C° 0 mm 3 mps 703 mmHg 22%
20:00 +43°C° 0 mm 3 mps 703 mmHg 24%
21:00 +41°C° 0.2 mm 2 mps 703 mmHg 26%
22:00 +40°C° 0.2 mm 2 mps 703 mmHg 28%
23:00 +39°C° 0.2 mm 1 mps 703 mmHg 31%
Show more